Regional Weather Roundup
Issued by NWS

Home | Current Version | Previous Version | Graphics & Text | Print | Product List | Glossary On
Versions: 1 2 3 4 5 6 7 8 9 10 11 12 13 14 15 16 17 18 19 20 21 22 23 24 25 26 27 28 29 30 31 32 33 34 35 36 37 38 39 40 41 42 43 44 45 46 47 48 49 50
000
ASUS45 KCYS 250910
RWRWY

WYOMING REGIONAL WEATHER ROUNDUP
NATIONAL WEATHER SERVICE CHEYENNE WY
300 AM MDT WED MAY 25 2016

NOTE:  "FAIR" INDICATES FEW OR NO CLOUDS BELOW 12,000 FEET
WITH NO SIGNIFICANT WEATHER AND/OR OBSTRUCTIONS TO VISIBILITY.

WYZ001-251000-
YELLOWSTONE NATIONAL PARK

CITY           SKY/WX    TMP DP  RH WIND       PRES   REMARKS
LK YELLOWSTONE   N/A     33  31  92 CALM      30.01S
W YELLOWSTONE  NOT AVBL

$$
WYZ002>013-054>058-071-098>099-251000-
NORTHERN WYOMING

CITY           SKY/WX    TMP DP  RH WIND       PRES   REMARKS
JACKSON        CLOUDY    39  37  93 S5        29.98S
CODY           CLOUDY    46  43  87 CALM      29.91S
GREYBULL       LGT RAIN  51  49  92 CALM      29.89R
WORLAND        CLOUDY    49  46  90 SE3       29.89S
SHERIDAN       CLOUDY    48  45  89 NW8       29.91S
BUFFALO        FAIR      46  41  82 NW18G28   29.90S
GILLETTE       FAIR      45  44  97 W7        29.88R
HULETT         CLOUDY    50  46  87 CALM      29.87S
NEWCASTLE      FAIR      45  45 100 SE5       29.87R

$$
WYZ014>020-022>026-101>103-251000-
CENTRAL WYOMING

CITY           SKY/WX    TMP DP  RH WIND       PRES   REMARKS
BIG PINEY      CLOUDY    38  36  92 CALM      30.01R
PINEDALE       CLOUDY    36  36 100 CALM      30.02R
DUBOIS         CLOUDY    39  30  70 NW8       29.95S WCI  34
LANDER         FAIR      42  35  76 CALM      29.90F
RIVERTON       FAIR      41  38  89 N6        29.92S
CASPER         FAIR      37  34  89 W6        29.91S WCI  32
DOUGLAS          N/A    N/A N/A N/A MISG      29.91R

$$
WYZ021-027>030-104>119-251000-
SOUTHERN WYOMING

CITY           SKY/WX    TMP DP  RH WIND       PRES   REMARKS
EVANSTON       FAIR      36  32  85 SW8       30.02S WCI  30
KEMMERER         N/A     34  34 100 N5        30.03R WCI  30
FORT BRIDGER   MOSUNNY   37  36  93 W7        30.05R WCI  32
ROCK SPRINGS   MOCLDY    40  33  76 CALM      30.01F
DIXON          CLOUDY    44  40  86 NE6       30.07F
RAWLINS        MOCLDY    44  34  67 SW21G31   30.00F
SARATOGA       DRIZZLE   41  37  87 SW9       30.06R
LARAMIE        FAIR      37  31  78 S3        30.01R
CHEYENNE       FAIR      50  34  54 NW12      29.94S
TORRINGTON     FAIR      44  42  93 E7        29.88F
PINE BLUFFS    FAIR      39  37  93 W3        29.92R

$$



USA.gov is the U.S. government's official web portal to all federal, state and local government web resources and services.